Resolute CS, Nunavut

11:48 AM MDT on April 19, 2018 (GMT -0600)
Resolute CS

Weather History for CXRB - July, 2013

Change the Weather History Date:

Thursday, July 25, 2013

  Actual Average (CYRB) Record (CYRB)
Temperature  
Mean Temperature 35 °F -  
Max Temperature 40 °F 41 °F 58 °F (2015)
Min Temperature 30 °F 33 °F 29 °F (2013)
Degree Days  
Heating Degree Days 30    
Moisture  
Dew Point 34 °F    
Average Humidity 92    
Maximum Humidity 97    
Minimum Humidity 79    
Precipitation  
Precipitation 0.00 in - - ()
Sea Level Pressure  
Sea Level Pressure 29.76 in    
Wind  
Wind Speed 10 mph ()    
Max Wind Speed 18 mph    
Max Gust Speed 23 mph    
Averages and records for this station are not official NWS values.
T = Trace of Precipitation, MM = Missing Value Source: Averaged Metar Reports

Daily Weather History Graph

Daily Weather History Graph

Search for Another Location

Airport or City:

Astronomy

Dec. 31, 1969 Rise Set
Actual Time Sun does not set Sun does not set
Civil Twilight Sun does not set Sun does not set
Nautical Twilight Sun does not set Sun does not set
Astronomical Twilight Sun does not set Sun does not set
Moon 9:27 PM MDT (7/25) 8:03 AM MDT (7/25)
Length of Visible Light 24h 00m
Length of Day
24h 00m
Waning Gibbous, 88% of the Moon is Illuminated
Jul 25
Waning Gibbous
Jul 29
Last Quarter
Aug 6
New
Aug 14
First Quarter
Aug 20
Full

Hourly Weather History & Observations

Time (MDT) Temp. Windchill Dew Point Humidity Pressure Visibility Wind Dir Wind Speed Gust Speed Precip Events Conditions
12:00 AM 32 °F - 31 °F 93% 29.78 in - West 9.2 mph - -  
12:00 AM 32.0 °F 24.2 °F 30.7 °F 95% 29.78 in - West 9.2 mph - N/A   Unknown
1:00 AM 30.6 °F 20.7 °F 29.5 °F 96% 29.79 in - WSW 12.7 mph - N/A   Unknown
2:00 AM 30.6 °F 23.1 °F 29.8 °F 97% 29.80 in - SW 8.1 mph - N/A   Unknown
3:00 AM 31.5 °F 25.8 °F 29.7 °F 93% 29.81 in - South 5.8 mph - N/A   Unknown
4:00 AM 32.0 °F - 29.8 °F 92% 29.81 in - SSW 1.2 mph - N/A   Unknown
5:00 AM 33.4 °F 27.3 °F 30.9 °F 90% 29.80 in - South 6.9 mph - N/A   Unknown
6:00 AM 34 °F - 33 °F 92% 29.80 in - SSE 8.1 mph - -  
6:00 AM 34.3 °F 27.7 °F 31.5 °F 89% 29.80 in - SSE 8.1 mph - N/A   Unknown
7:00 AM 35.1 °F 25.9 °F 33.8 °F 95% 29.79 in - South 13.8 mph - N/A   Unknown
8:00 AM 35.8 °F 25.7 °F 34.7 °F 96% 29.78 in - SSW 17.3 mph - N/A   Unknown
9:00 AM 35.8 °F 25.7 °F 34.9 °F 97% 29.77 in - SSW 17.3 mph - N/A   Unknown
10:00 AM 36.3 °F 26.8 °F 35.6 °F 97% 29.76 in - South 16.1 mph - N/A   Unknown
11:00 AM 38.1 °F 29.8 °F 37.4 °F 97% 29.74 in - South 13.8 mph - N/A   Unknown
12:00 PM 38.8 °F 29.4 °F 37.9 °F 97% 29.72 in - South 18.4 mph - N/A   Unknown
1:00 PM 37.9 °F 29.6 °F 36.9 °F 96% 29.71 in - South 13.8 mph - N/A   Unknown
2:00 PM 39.2 °F 30.2 °F 37.9 °F 95% 29.70 in - SW 17.3 mph 23.0 mph N/A   Unknown
3:00 PM 37.4 °F 28.5 °F 35.8 °F 94% 29.71 in - WSW 15.0 mph - N/A   Unknown
4:00 PM 40.1 °F 32.7 °F 35.4 °F 83% 29.72 in - WSW 12.7 mph - N/A   Unknown
5:00 PM 37.9 °F 28.9 °F 34.0 °F 86% 29.73 in - WSW 16.1 mph - N/A   Unknown
6:00 PM 38 °F - 34 °F 79% 29.73 in - WSW 13.8 mph - -  
6:00 PM 37.6 °F 29.1 °F 33.8 °F 86% 29.73 in - WSW 13.8 mph - N/A   Unknown
7:00 PM 37.2 °F 28.3 °F 33.1 °F 85% 29.73 in - WSW 15.0 mph - N/A   Unknown
8:00 PM 36.0 °F 28.0 °F 33.4 °F 91% 29.73 in - WSW 11.5 mph - N/A   Unknown
9:00 PM 35.2 °F 27.1 °F 33.6 °F 94% 29.73 in - WSW 11.5 mph - N/A   Unknown
10:00 PM 35.1 °F 27.4 °F 33.8 °F 95% 29.72 in - WSW 10.4 mph - N/A   Unknown
11:00 PM 34.7 °F 28.1 °F 33.3 °F 94% 29.72 in - WSW 8.1 mph - N/A   Unknown